Weather History for Three Rivers, MI

Change the Weather History Date:

Thursday, February 19, 2009

  Actual Average Record
Temperature  
Mean Temperature 20 °F -  
Max Temperature 23 °F 37 °F 60 °F (1961)
Min Temperature 17 °F 20 °F -15 °F (1979)
Degree Days  
Heating Degree Days 45    
Moisture  
Dew Point 15 °F    
Average Humidity 80    
Maximum Humidity 93    
Minimum Humidity 68    
Precipitation  
Precipitation 0.00 in - - ()
Sea Level Pressure  
Sea Level Pressure 29.83 in    
Wind  
Wind Speed 16 mph (WNW)    
Max Wind Speed 23 mph    
Max Gust Speed 33 mph    
Visibility 4 miles    
Events Snow    
Averages and records for this station are not official NWS values.
T = Trace of Precipitation, MM = Missing Value Source: NWS Daily Summary

Daily Weather History Graph

Daily Weather History Graph

Search for Another Location

Airport:

Trip Planner

Search our weather history database for the weather conditions in past years. The results will help you decide how hot, cold, wet, or windy it might be!

Date:

Astronomy

Feb. 19, 2009 Rise Set
Actual Time 7:32 AM EST 6:20 PM EST
Civil Twilight 7:03 AM EST 6:49 PM EST
Nautical Twilight 6:31 AM EST 7:21 PM EST
Astronomical Twilight 5:59 AM EST 7:53 PM EST
Moon 4:24 AM EST (2/19) 1:05 PM EST (2/19)
Length of Visible Light 11h 45m
Length of Day
10h 48m
Waning Crescent, 25% of the Moon is Illuminated
Feb 19
Waning Crescent
Feb 24
New
Mar 4
First Quarter
Mar 10
Full
Mar 18
Last Quarter

Hourly Weather History & Observations

Time (EST) Temp. Windchill Dew Point Humidity Pressure Visibility Wind Dir Wind Speed Gust Speed Precip Events Conditions
12:37 AM 23.0 °F 8.7 °F 17.6 °F 80% 29.64 in 10.0 mi NNW 18.4 mph 25.3 mph N/A Snow Light Snow
12:55 AM 23.0 °F 10.1 °F 17.6 °F 80% 29.65 in 7.0 mi NNW 15.0 mph 25.3 mph N/A Snow Light Snow
1:17 AM 23.0 °F 9.6 °F 19.4 °F 86% 29.65 in 3.0 mi NW 16.1 mph 20.7 mph N/A Snow Light Snow
1:37 AM 23.0 °F 10.1 °F 17.6 °F 80% 29.66 in 10.0 mi NW 15.0 mph 23.0 mph N/A   Overcast
1:55 AM 21.2 °F 8.3 °F 17.6 °F 86% 29.67 in 7.0 mi NW 13.8 mph 27.6 mph N/A Snow Light Snow
2:17 AM 21.2 °F 10.1 °F 17.6 °F 86% 29.67 in 3.0 mi NW 10.4 mph - N/A Snow Light Snow
2:37 AM 21.2 °F 7.8 °F 17.6 °F 86% 29.68 in 7.0 mi NW 15.0 mph 25.3 mph N/A Snow Light Snow
2:55 AM 21.2 °F 6.8 °F 15.8 °F 80% 29.68 in 10.0 mi NW 17.3 mph 25.3 mph N/A   Scattered Clouds
3:17 AM 21.2 °F 7.3 °F 15.8 °F 80% 29.69 in 10.0 mi NW 16.1 mph 24.2 mph N/A Snow Light Snow
3:37 AM 21.2 °F 6.0 °F 15.8 °F 80% 29.69 in 5.0 mi WNW 19.6 mph 25.3 mph N/A Snow Light Snow
3:55 AM 19.4 °F 4.1 °F 17.6 °F 93% 29.70 in 2.0 mi NW 18.4 mph 24.2 mph N/A Snow Light Snow
4:17 AM 19.4 °F 4.5 °F 15.8 °F 86% 29.71 in 5.0 mi WNW 17.3 mph 23.0 mph N/A Snow Light Snow
4:37 AM 19.4 °F 6.0 °F 15.8 °F 86% 29.72 in 4.0 mi WNW 13.8 mph 21.9 mph N/A Snow Light Snow
4:55 AM 19.4 °F 5.0 °F 15.8 °F 86% 29.72 in 2.5 mi WNW 16.1 mph 20.7 mph N/A Snow Light Snow
5:17 AM 19.4 °F 6.0 °F 14.0 °F 80% 29.73 in 5.0 mi NW 13.8 mph 26.5 mph N/A Snow Light Snow
5:37 AM 19.4 °F 5.5 °F 14.0 °F 80% 29.74 in 4.0 mi WNW 15.0 mph 24.2 mph N/A Snow Light Snow
5:55 AM 19.4 °F 5.0 °F 14.0 °F 80% 29.74 in 4.0 mi WNW 16.1 mph 26.5 mph N/A Snow Light Snow
6:17 AM 17.6 °F 3.2 °F 14.0 °F 86% 29.75 in 4.0 mi WNW 15.0 mph 18.4 mph N/A Snow Light Snow
6:37 AM 17.6 °F 2.7 °F 14.0 °F 86% 29.76 in 7.0 mi WNW 16.1 mph 24.2 mph N/A Snow Light Snow
6:55 AM 17.6 °F 2.2 °F 14.0 °F 86% 29.77 in 5.0 mi WNW 17.3 mph 20.7 mph N/A Snow Light Snow
7:17 AM 17.6 °F 2.7 °F 14.0 °F 86% 29.78 in 2.0 mi WNW 16.1 mph 20.7 mph N/A Snow Light Snow
7:36 AM 17.6 °F 1.3 °F 14.0 °F 86% 29.79 in 2.0 mi WNW 19.6 mph 27.6 mph N/A Snow Light Snow
7:55 AM 17.6 °F 2.7 °F 14.0 °F 86% 29.79 in 3.0 mi WNW 16.1 mph 21.9 mph N/A   Overcast
8:17 AM 17.6 °F 3.2 °F 12.2 °F 79% 29.81 in 4.0 mi WNW 15.0 mph 23.0 mph N/A Snow Light Snow
8:37 AM 17.6 °F 4.3 °F 14.0 °F 86% 29.82 in 2.5 mi WNW 12.7 mph 19.6 mph N/A Snow Light Snow
8:55 AM 19.4 °F 7.2 °F 14.0 °F 80% 29.82 in 2.5 mi NW 11.5 mph 24.2 mph N/A Snow Light Snow
9:17 AM 19.4 °F 6.6 °F 15.8 °F 86% 29.83 in 0.8 mi WNW 12.7 mph - N/A Snow Light Snow
9:36 AM 19.4 °F 3.6 °F 14.0 °F 80% 29.84 in 1.0 mi WNW 19.6 mph 23.0 mph N/A Snow Light Snow
9:55 AM 19.4 °F 6.0 °F 15.8 °F 86% 29.85 in 1.2 mi WNW 13.8 mph - N/A Snow Light Snow
10:17 AM 19.4 °F 5.5 °F 14.0 °F 80% 29.85 in 1.5 mi WNW 15.0 mph 24.2 mph N/A Snow Light Snow
10:37 AM 19.4 °F 5.0 °F 14.0 °F 80% 29.86 in 4.0 mi WNW 16.1 mph 26.5 mph N/A Snow Light Snow
10:55 AM 19.4 °F 4.1 °F 14.0 °F 80% 29.87 in 5.0 mi WNW 18.4 mph 27.6 mph N/A Snow Light Snow
11:17 AM 19.4 °F 3.6 °F 14.0 °F 80% 29.87 in 2.5 mi NW 19.6 mph 26.5 mph N/A Snow Light Snow
11:37 AM 19.4 °F 4.1 °F 14.0 °F 80% 29.88 in 2.5 mi NW 18.4 mph 28.8 mph N/A Snow Light Snow
11:55 AM 19.4 °F 5.5 °F 12.2 °F 74% 29.89 in 4.0 mi NW 15.0 mph 33.4 mph N/A Snow Light Snow
12:17 PM 21.2 °F 7.3 °F 12.2 °F 68% 29.90 in 4.0 mi NW 16.1 mph 27.6 mph N/A Snow Light Snow
12:37 PM 19.4 °F 2.8 °F 14.0 °F 80% 29.90 in 2.0 mi NW 21.9 mph 29.9 mph N/A Snow Light Snow
12:55 PM 21.2 °F 4.9 °F 12.2 °F 68% 29.90 in 5.0 mi WNW 23.0 mph 31.1 mph N/A Snow Light Snow
1:17 PM 21.2 °F 6.4 °F 14.0 °F 74% 29.91 in 10.0 mi WNW 18.4 mph 29.9 mph N/A Snow Light Snow
1:38 PM 21.2 °F 6.4 °F 12.2 °F 68% 29.90 in 7.0 mi NW 18.4 mph 32.2 mph N/A   Overcast
1:57 PM 21.2 °F 6.8 °F 12.2 °F 68% 29.91 in 5.0 mi NW 17.3 mph 25.3 mph N/A Snow Light Snow
2:16 PM 21.2 °F 7.3 °F 12.2 °F 68% 29.91 in 7.0 mi NW 16.1 mph 31.1 mph N/A Snow Light Snow
2:37 PM 21.2 °F 6.0 °F 14.0 °F 74% 29.92 in 4.0 mi WNW 19.6 mph 32.2 mph N/A Snow Light Snow
2:55 PM 21.2 °F 6.0 °F 14.0 °F 74% 29.92 in 2.0 mi NW 19.6 mph 28.8 mph N/A Snow Light Snow
3:17 PM 21.2 °F 6.4 °F 14.0 °F 74% 29.93 in 5.0 mi NW 18.4 mph 28.8 mph N/A Snow Light Snow
3:36 PM 21.2 °F 7.3 °F 14.0 °F 74% 29.94 in 4.0 mi WNW 16.1 mph 27.6 mph N/A Snow Light Snow
3:55 PM 21.2 °F 6.8 °F 14.0 °F 74% 29.94 in 2.0 mi WNW 17.3 mph 24.2 mph N/A Snow Light Snow
4:17 PM 21.2 °F 6.8 °F 15.8 °F 80% 29.95 in 1.2 mi WNW 17.3 mph 24.2 mph N/A Snow Light Snow
4:37 PM 21.2 °F 6.8 °F 14.0 °F 74% 29.95 in 2.0 mi WNW 17.3 mph 25.3 mph N/A Snow Light Snow
4:55 PM 21.2 °F 5.6 °F 14.0 °F 74% 29.95 in 5.0 mi WNW 20.7 mph 25.3 mph N/A Snow Light Snow
5:17 PM 19.4 °F 3.2 °F 12.2 °F 74% 29.96 in 10.0 mi WNW 20.7 mph 26.5 mph N/A Snow Light Snow
5:37 PM 19.4 °F 5.0 °F 14.0 °F 80% 29.96 in 5.0 mi WNW 16.1 mph - N/A Snow Light Snow
5:55 PM 19.4 °F 5.5 °F 14.0 °F 80% 29.97 in 3.0 mi WNW 15.0 mph - N/A Snow Light Snow
6:17 PM 19.4 °F 6.6 °F 14.0 °F 80% 29.97 in 4.0 mi West 12.7 mph - N/A Snow Light Snow
6:37 PM 19.4 °F 7.2 °F 14.0 °F 80% 29.97 in 5.0 mi WNW 11.5 mph 19.6 mph N/A Snow Light Snow
6:55 PM 19.4 °F 7.9 °F 15.8 °F 86% 29.98 in 3.0 mi West 10.4 mph - N/A Snow Light Snow
7:17 PM 19.4 °F 7.9 °F 17.6 °F 93% 29.98 in 3.0 mi West 10.4 mph - N/A Snow Light Snow
7:37 PM 19.4 °F 8.6 °F 15.8 °F 86% 29.98 in 10.0 mi West 9.2 mph - N/A   Overcast
7:55 PM 19.4 °F 7.9 °F 15.8 °F 86% 29.98 in 7.0 mi West 10.4 mph - N/A Snow Light Snow
8:17 PM 19.4 °F 9.5 °F 15.8 °F 86% 29.98 in 10.0 mi West 8.1 mph - N/A Snow Light Snow
8:37 PM 21.2 °F 10.1 °F 14.0 °F 74% 29.98 in 10.0 mi West 10.4 mph - N/A   Overcast
8:55 PM 21.2 °F 8.3 °F 14.0 °F 74% 29.98 in 10.0 mi West 13.8 mph 20.7 mph N/A   Overcast
9:17 PM 21.2 °F 8.9 °F 14.0 °F 74% 29.98 in 10.0 mi WNW 12.7 mph 19.6 mph N/A   Overcast
9:37 PM 21.2 °F 7.3 °F 14.0 °F 74% 29.98 in 10.0 mi West 16.1 mph 21.9 mph N/A Snow Light Snow
9:55 PM 21.2 °F 8.9 °F 14.0 °F 74% 29.98 in 7.0 mi West 12.7 mph 18.4 mph N/A Snow Light Snow
10:17 PM 23.0 °F 9.6 °F 14.0 °F 68% 29.98 in 7.0 mi WNW 16.1 mph 25.3 mph N/A Snow Light Snow
10:37 PM 23.0 °F 8.3 °F 14.0 °F 68% 29.98 in 5.0 mi NW 19.6 mph 25.3 mph N/A Snow Light Snow
10:55 PM 23.0 °F 11.1 °F 14.0 °F 68% 29.98 in 4.0 mi NW 12.7 mph - N/A Snow Light Snow
11:17 PM 23.0 °F 10.6 °F 14.0 °F 68% 29.98 in 5.0 mi WNW 13.8 mph 20.7 mph N/A Snow Light Snow
11:37 PM 23.0 °F 8.3 °F 12.2 °F 63% 29.98 in 10.0 mi WNW 19.6 mph 27.6 mph N/A Snow Light Snow
11:55 PM 21.2 °F 10.1 °F 14.0 °F 74% 29.99 in 7.0 mi NW 10.4 mph 19.6 mph N/A Snow Light Snow